Weather History for The Dalles, OR

Change the Weather History Date:

Tuesday, September 17, 2013

  Actual Average Record
Temperature  
Mean Temperature 67 °F -  
Max Temperature 73 °F 78 °F 97 °F (1981)
Min Temperature 61 °F 52 °F 29 °F (1965)
Cooling Degree Days 2    
Growing Degree Days 17 (Base 50)    
Moisture  
Dew Point 49 °F    
Average Humidity 57    
Maximum Humidity 75    
Minimum Humidity 31    
Precipitation  
Precipitation 0.00 in - - ()
Sea Level Pressure  
Sea Level Pressure 29.82 in    
Wind  
Wind Speed 12 mph (WNW)    
Max Wind Speed 28 mph    
Max Gust Speed 37 mph    
Visibility 10 miles    
Events      
Averages and records for this station are not official NWS values.
T = Trace of Precipitation, MM = Missing Value Source: NWS Daily Summary

Daily Weather History Graph

Daily Weather History Graph

Search for Another Location

Airport:

Trip Planner

Search our weather history database for the weather conditions in past years. The results will help you decide how hot, cold, wet, or windy it might be!

Date:

Astronomy

Sep. 17, 2013 Rise Set
Actual Time 6:45 AM PDT 7:11 PM PDT
Civil Twilight 6:16 AM PDT 7:40 PM PDT
Nautical Twilight 5:40 AM PDT 8:16 PM PDT
Astronomical Twilight 5:04 AM PDT 8:52 PM PDT
Moon 6:03 PM PDT (9/17) 4:42 AM PDT (9/17)
Length of Visible Light 13h 24m
Length of Day
12h 25m
Waxing Gibbous, 96% of the Moon is Illuminated
Sep 17
Waxing Gibbous
Sep 19
Full
Sep 26
Last Quarter
Oct 4
New
Oct 11
First Quarter

Hourly Weather History & Observations

Time (PDT) Temp. Dew Point Humidity Pressure Visibility Wind Dir Wind Speed Gust Speed Precip Events Conditions
12:53 AM 63.0 °F 53.1 °F 70% 29.84 in 10.0 mi WNW 8.1 mph - N/A   Clear
1:53 AM 63.0 °F 53.1 °F 70% 29.83 in 10.0 mi NW 9.2 mph - N/A   Clear
2:53 AM 62.1 °F 53.1 °F 72% 29.84 in 10.0 mi WNW 4.6 mph - N/A   Clear
3:53 AM 62.1 °F 53.1 °F 72% 29.82 in 10.0 mi NW 11.5 mph - N/A   Clear
4:53 AM 62.1 °F 52.0 °F 70% 29.82 in 10.0 mi NW 5.8 mph - N/A   Clear
5:53 AM 61.0 °F 53.1 °F 75% 29.81 in 10.0 mi NW 13.8 mph - N/A   Scattered Clouds
6:53 AM 61.0 °F 53.1 °F 75% 29.79 in 10.0 mi NW 13.8 mph - N/A   Clear
7:53 AM 62.1 °F 53.1 °F 72% 29.80 in 10.0 mi NW 6.9 mph - N/A   Clear
8:53 AM 63.0 °F 52.0 °F 67% 29.80 in 10.0 mi NW 11.5 mph - N/A   Clear
9:53 AM 64.9 °F 48.9 °F 56% 29.80 in 10.0 mi NW 13.8 mph 21.9 mph N/A   Clear
10:53 AM 66.9 °F 51.1 °F 57% 29.80 in 10.0 mi NW 12.7 mph 20.7 mph N/A   Clear
11:53 AM 66.9 °F 50.0 °F 54% 29.79 in 10.0 mi NW 15.0 mph - N/A   Clear
12:53 PM 70.0 °F 48.0 °F 46% 29.79 in 10.0 mi NW 17.3 mph 26.5 mph N/A   Clear
1:53 PM 73.0 °F 45.0 °F 37% 29.77 in 10.0 mi NW 27.6 mph 33.4 mph N/A   Partly Cloudy
2:53 PM 73.0 °F 41.0 °F 31% 29.77 in 10.0 mi West 20.7 mph 29.9 mph N/A   Clear
3:53 PM 72.0 °F 43.0 °F 35% 29.79 in 10.0 mi WNW 25.3 mph 36.8 mph N/A   Clear
4:53 PM 68.0 °F 44.1 °F 42% 29.80 in 10.0 mi WNW 24.2 mph 33.4 mph N/A   Clear
5:53 PM 66.0 °F 45.0 °F 47% 29.83 in 10.0 mi WNW 18.4 mph 34.5 mph N/A   Clear
6:53 PM 64.0 °F 45.0 °F 50% 29.83 in 10.0 mi WNW 15.0 mph 24.2 mph N/A   Clear
7:53 PM 63.0 °F 45.0 °F 52% 29.86 in 10.0 mi WNW 15.0 mph - N/A   Partly Cloudy
8:53 PM 62.1 °F 46.0 °F 56% 29.88 in 10.0 mi West 12.7 mph - N/A   Scattered Clouds
9:53 PM 62.1 °F 46.0 °F 56% 29.90 in 10.0 mi West 8.1 mph - N/A   Scattered Clouds
10:53 PM 62.1 °F 46.9 °F 58% 29.90 in 10.0 mi West 13.8 mph 26.5 mph N/A   Partly Cloudy
11:53 PM 61.0 °F 46.9 °F 60% 29.91 in 10.0 mi WNW 11.5 mph - N/A   Clear